{"data":{"norad_id":68046,"epoch":"2026-09-19T22:00:12.142080Z","epoch_age_seconds":109944,"freshness":"FRESH","line1":"1 68046U 26041G   26262.91680720  .00017991  00000+0  54213-3 0  9992","line2":"2 68046  53.1560 224.2848 0001454  96.9801 263.1367 15.34411368 31179","mean_motion":15.34411368,"eccentricity":0.0001454,"inclination_deg":53.156,"raan_deg":224.2848,"arg_perigee_deg":96.9801,"mean_anomaly_deg":263.1367,"bstar":0.00054213,"rev_number":3117,"period_min":93.847062791052,"perigee_km":461.67479906585,"apogee_km":463.66410558218,"semimajor_km":6840.806452324,"source":"CELESTRAK","updated_at":"2026-09-20T09:00:43.748100Z"}}